Lid_Strength_Index
0 0 0 -0 -0 -0 -1 -1 -1 -1 -1 -1 -1 -1 -1 -1 -1 1 3 1 -0 -2 -0 3 3 3 3 4 4 6 10 11 11 10 9 8 9 8 8 8 8 7 9 8 7
0 1 0 0 0 -0 -0 -1 -1 -1 -1 -1 -1 -1 -1 -0 1 3 1 -2 -2 -2 2 4 5 4 6 5 5 8 10 10 8 8 9 8 9 8 9 9 9 9 8 7 7
0 0 0 0 0 -0 -0 -1 -1 -1 -1 -1 -1 -1 -1 0 3 4 -1 -2 -2 -0 2 3 4 5 7 6 7 8 10 9 8 7 7 8 9 8 10 10 9 8 8 8 8
-0 0 0 0 -0 -0 -0 -1 -1 -1 -1 -1 -1 -1 -0 1 7 2 -1 -2 -2 2 3 3 5 7 8 8 6 9 8 8 7 7 8 9 8 9 9 9 8 8 8 8 8
-1 -0 -0 0 0 -0 -0 -1 -1 -1 -1 -1 -1 -0 1 4 4 1 -0 -1 1 3 4 5 7 7 9 8 7 9 8 7 7 8 8 7 9 9 9 8 8 8 8 9 9
-0 -0 -0 -0 -0 -0 -0 -1 -1 -0 -1 -1 -1 0 2 6 1 2 2 2 2 4 5 5 6 6 8 8 9 8 7 8 7 7 8 9 9 9 9 9 9 9 9 10 10
-0 -0 -0 -0 -0 -0 -0 -0 -0 0 -0 -1 -1 1 3 4 1 2 3 3 3 4 5 4 5 6 7 8 7 8 10 9 8 8 9 9 11 10 9 9 10 10 10 10 10
-0 -0 -0 -0 -0 -0 -0 -0 0 -0 -0 -1 -1 2 5 2 1 2 3 4 3 3 4 4 4 5 6 7 8 10 10 12 9 8 9 10 12 9 9 10 10 10 11 11 11
0 0 -0 -0 -0 -0 -0 -0 -0 -1 -0 -0 1 3 6 2 3 2 3 4 4 4 4 4 4 7 8 10 11 11 13 12 11 8 10 11 12 10 10 10 11 11 11 11 12
0 0 0 0 0 -0 -0 -1 -1 -0 0 1 2 5 5 6 4 3 3 4 5 5 6 6 8 10 10 11 14 12 13 11 12 10 10 12 12 10 10 10 11 11 11 11 12
2 0 0 0 0 -0 0 1 4 5 3 5 5 5 6 6 4 4 4 5 5 7 9 8 11 12 10 9 9 10 12 12 11 10 11 11 11 10 10 11 11 11 11 11 12
2 2 0 -0 -0 -0 0 4 3 4 7 4 4 4 5 5 8 5 4 7 8 10 8 11 12 9 8 8 10 11 12 12 10 11 12 12 12 10 10 11 10 10 11 11 13
2 2 2 1 0 0 2 3 2 2 7 6 4 5 6 6 7 7 6 7 9 9 9 11 9 8 9 11 11 12 12 12 12 12 12 13 14 12 10 9 10 10 10 11 13
2 2 2 1 3 2 3 0 -0 1 10 10 7 5 7 6 8 5 5 7 9 10 9 10 8 10 11 11 11 13 10 10 11 13 16 13 17 13 11 10 10 11 12 12 13
2 2 2 2 4 4 3 1 0 3 17 8 8 5 6 7 8 9 6 8 10 11 10 12 11 12 11 11 10 12 10 11 12 14 15 15 16 14 11 11 11 13 12 13 13
2 2 2 3 3 3 2 2 2 12 17 10 9 9 9 8 9 9 9 8 9 10 11 11 10 11 11 11 10 10 11 13 14 14 18 15 15 16 12 11 11 12 12 13 13
2 2 2 2 6 1 2 4 13 16 11 13 12 10 10 11 11 11 12 13 12 14 14 12 12 10 10 12 11 12 13 18 19 20 20 16 16 14 13 13 12 12 12 13 13
1 2 2 3 2 2 3 10 18 14 14 9 10 11 12 11 11 12 13 14 11 11 13 14 15 11 11 11 13 14 13 17 22 21 19 18 19 15 13 13 13 11 12 13 14
1 2 3 3 2 3 7 16 16 13 11 12 11 13 12 11 12 13 13 13 11 11 13 13 14 11 12 11 11 14 15 12 17 21 21 17 16 13 14 15 14 13 13 14 14
2 3 4 2 1 4 10 14 13 10 9 10 13 12 13 12 13 13 13 11 11 11 9 11 15 12 13 12 12 13 12 17 17 23 23 18 17 16 16 15 15 14 14 14 14
3 7 2 1 2 7 13 14 11 9 9 11 12 12 12 12 13 14 13 11 10 10 10 11 13 16 14 15 14 15 15 14 14 16 20 21 17 13 13 13 15 14 13 14 14
4 10 2 1 9 9 12 10 9 9 7 8 9 10 10 11 13 13 13 11 9 9 12 10 12 17 16 13 13 13 14 14 17 18 16 18 16 13 13 12 13 13 13 13 13
7 7 2 3 12 12 9 10 9 10 10 9 10 9 9 10 12 12 12 10 9 10 11 10 13 17 17 16 15 15 14 12 12 15 17 19 17 14 14 13 13 13 13 13 13
6 11 7 6 7 10 11 11 11 8 9 8 9 8 10 11 10 12 12 10 10 10 9 9 12 14 17 15 13 16 15 13 13 17 17 16 15 16 15 14 13 13 12 12 12
6 9 7 12 10 10 9 10 11 12 9 8 10 9 11 13 11 12 11 12 12 10 10 10 15 13 12 12 12 15 15 14 15 14 16 15 14 12 13 14 13 12 12 12 13
8 8 7 9 8 10 10 11 11 10 10 11 11 10 9 11 11 12 10 11 13 12 13 12 15 13 15 13 13 14 12 14 14 14 14 14 14 11 11 12 13 12 12 13 13
6 6 7 9 9 11 12 11 11 9 8 8 9 10 11 10 8 7 8 9 9 12 14 13 14 15 17 14 14 17 14 13 13 13 13 16 13 11 11 13 13 12 12 13 13